Weather History for Glendale Luke AFB, AZ

Change the Weather History Date:

Tuesday, January 8, 2013

  Actual Average Record
Temperature  
Mean Temperature 50 °F -  
Max Temperature 65 °F 65 °F 70 °F (2015)
Min Temperature 34 °F 36 °F 48 °F (2015)
Degree Days  
Heating Degree Days 16    
Moisture  
Dew Point 24 °F    
Average Humidity 42    
Maximum Humidity 70    
Minimum Humidity 20    
Precipitation  
Precipitation 0.00 in - - ()
Sea Level Pressure  
Sea Level Pressure 30.00 in    
Wind  
Wind Speed 6 mph (WSW)    
Max Wind Speed 13 mph    
Max Gust Speed -    
Visibility 10 miles    
Events      
Averages and records for this station are not official NWS values.
T = Trace of Precipitation, MM = Missing Value Source: NWS Daily Summary

Daily Weather History Graph

Daily Weather History Graph

Search for Another Location

Airport:

Trip Planner

Search our weather history database for the weather conditions in past years. The results will help you decide how hot, cold, wet, or windy it might be!

Date:

Astronomy

Jan. 08, 2013 Rise Set
Actual Time 7:34 AM MST 5:38 PM MST
Civil Twilight 7:07 AM MST 6:05 PM MST
Nautical Twilight 6:36 AM MST 6:36 PM MST
Astronomical Twilight 6:06 AM MST 7:06 PM MST
Moon 4:12 AM MST (1/8) 2:44 PM MST (1/8)
Length of Visible Light 10h 58m
Length of Day
10h 04m
Waning Crescent, 13% of the Moon is Illuminated
Jan 8
Waning Crescent
Jan 11
New
Jan 18
First Quarter
Jan 26
Full
Feb 3
Last Quarter

Hourly Weather History & Observations

Time (MST) Temp. Windchill Dew Point Humidity Pressure Visibility Wind Dir Wind Speed Gust Speed Precip Events Conditions
12:58 AM 43.9 °F 40.5 °F 23.4 °F 44% 29.91 in 10.0 mi SSE 5.8 mph - N/A   Clear
1:58 AM 38.5 °F 34.1 °F 26.6 °F 62% 29.91 in 10.0 mi NW 5.8 mph - N/A   Clear
2:58 AM 37.2 °F 32.6 °F 28.2 °F 70% 29.91 in 10.0 mi NW 5.8 mph - N/A   Clear
3:58 AM 37.4 °F 30.3 °F 27.1 °F 66% 29.92 in 10.0 mi NW 10.4 mph - N/A   Clear
4:58 AM 37.0 °F 34.5 °F 23.5 °F 58% 29.94 in 10.0 mi East 3.5 mph - N/A   Clear
5:58 AM 37.9 °F 32.7 °F 22.3 °F 53% 29.96 in 10.0 mi NNW 6.9 mph - N/A   Clear
6:58 AM 35.6 °F 32.8 °F 23.2 °F 61% 29.98 in 10.0 mi SSE 3.5 mph - N/A   Clear
7:58 AM 34.0 °F 28.0 °F 23.2 °F 65% 30.02 in 10.0 mi North 6.9 mph - N/A   Clear
8:58 AM 39.9 °F 37.8 °F 22.5 °F 50% 30.04 in 10.0 mi NNE 3.5 mph - N/A   Clear
9:58 AM 45.7 °F - 25.0 °F 44% 30.07 in 10.0 mi Calm Calm - N/A   Clear
10:58 AM 50.7 °F - 21.9 °F 32% 30.06 in 10.0 mi SSW 3.5 mph - N/A   Clear
11:58 AM 55.9 °F - 21.7 °F 27% 30.03 in 10.0 mi South 4.6 mph - N/A   Clear
12:58 PM 60.4 °F - 25.7 °F 27% 30.01 in 10.0 mi South 6.9 mph - N/A   Clear
1:58 PM 63.1 °F - 21.7 °F 21% 29.99 in 10.0 mi SW 8.1 mph - N/A   Clear
2:58 PM 64.9 °F - 22.1 °F 20% 29.98 in 10.0 mi South 9.2 mph - N/A   Clear
3:58 PM 65.8 °F - 23.2 °F 20% 29.98 in 10.0 mi South 12.7 mph - N/A   Clear
4:58 PM 64.9 °F - 22.1 °F 20% 29.98 in 10.0 mi South 11.5 mph - N/A   Clear
5:58 PM 61.5 °F - 20.3 °F 20% 29.99 in 10.0 mi SSW 9.2 mph - N/A   Clear
6:58 PM 53.8 °F - 25.7 °F 34% 30.02 in 10.0 mi North 2.3 mph - N/A   Clear
7:58 PM 50.4 °F - 27.9 °F 42% 30.04 in 10.0 mi NNE 2.3 mph - N/A   Clear
8:58 PM 51.8 °F - 26.2 °F 37% 30.06 in 10.0 mi SE 4.6 mph - N/A   Clear
9:58 PM 48.7 °F - 26.2 °F 42% 30.07 in 10.0 mi WNW 1.2 mph - N/A   Clear
10:58 PM 45.7 °F 42.7 °F 27.9 °F 50% 30.08 in 10.0 mi NNE 5.8 mph - N/A   Clear
11:58 PM 44.8 °F 41.6 °F 27.5 °F 51% 30.09 in 10.0 mi NW 5.8 mph - N/A   Clear